When you browse on this site, cookies collect data to enhance your experience and personalize the content and advertising you see.
Visit our Privacy Policy to learn more. By continuing to use the site, you agree to this use of cookies and data.
  • In Latvia
  • List of Countries
  • For 7 days
  • Water Temperature
  • Satellite Maps
  • Weather Map
  • Weather Widgets
  • user-avatar
    Login

    Hourly Weather Morozov

    Today, 16 June, Sunday

    Time Temperature Precipitation Wind Pressure Humidity
    00:00 +15°C° 0 mm 2 mps 755 mmHg 77%
    01:00 +15°C° 0 mm 2 mps 756 mmHg 77%
    02:00 +14°C° 0 mm 2 mps 756 mmHg 77%
    03:00 +14°C° 0 mm 2 mps 756 mmHg 77%
    04:00 +15°C° 0 mm 2 mps 756 mmHg 73%
    05:00 +16°C° 0 mm 2 mps 755 mmHg 69%
    06:00 +17°C° 0 mm 2 mps 755 mmHg 64%
    07:00 +19°C° 0 mm 2 mps 755 mmHg 58%
    08:00 +20°C° 0 mm 3 mps 756 mmHg 52%
    09:00 +21°C° 0 mm 3 mps 756 mmHg 46%
    10:00 +22°C° 0 mm 3 mps 756 mmHg 44%
    11:00 +24°C° 0 mm 3 mps 755 mmHg 43%
    12:00 +25°C° 0 mm 3 mps 755 mmHg 41%
    13:00 +25°C° 0 mm 3 mps 755 mmHg 41%
    14:00 +25°C° 0 mm 2 mps 755 mmHg 41%
    15:00 +26°C° 0 mm 2 mps 755 mmHg 40%
    16:00 +25°C° 0 mm 3 mps 755 mmHg 43%
    17:00 +25°C° 0 mm 3 mps 754 mmHg 46%
    18:00 +23°C° 0 mm 4 mps 754 mmHg 49%
    19:00 +22°C° 0 mm 4 mps 754 mmHg 54%
    20:00 +20°C° 0 mm 4 mps 754 mmHg 59%
    21:00 +18°C° 0 mm 4 mps 755 mmHg 63%
    22:00 +18°C° 0 mm 3 mps 755 mmHg 63%
    23:00 +18°C° 0 mm 3 mps 755 mmHg 63%

    Tomorrow, 17 June, Monday

    Time Temperature Precipitation Wind Pressure Humidity
    00:00 +17°C° 0 mm 3 mps 755 mmHg 63%
    01:00 +17°C° 0 mm 2 mps 755 mmHg 64%
    02:00 +16°C° 0 mm 2 mps 755 mmHg 66%
    03:00 +15°C° 0 mm 2 mps 755 mmHg 68%
    04:00 +16°C° 0 mm 2 mps 755 mmHg 65%
    05:00 +17°C° 0 mm 2 mps 756 mmHg 62%
    06:00 +18°C° 0 mm 2 mps 756 mmHg 59%
    07:00 +20°C° 0 mm 2 mps 756 mmHg 54%
    08:00 +21°C° 0 mm 2 mps 756 mmHg 50%
    09:00 +23°C° 0 mm 2 mps 757 mmHg 45%
    10:00 +24°C° 0 mm 2 mps 757 mmHg 43%
    11:00 +25°C° 0 mm 2 mps 757 mmHg 40%
    12:00 +26°C° 0 mm 2 mps 757 mmHg 38%
    13:00 +27°C° 0 mm 2 mps 756 mmHg 37%
    14:00 +27°C° 0 mm 2 mps 756 mmHg 36%
    15:00 +28°C° 0 mm 3 mps 756 mmHg 35%
    16:00 +27°C° 0 mm 3 mps 756 mmHg 37%
    17:00 +27°C° 0 mm 3 mps 756 mmHg 39%
    18:00 +26°C° 0 mm 3 mps 756 mmHg 41%
    19:00 +24°C° 0 mm 3 mps 756 mmHg 47%
    20:00 +21°C° 0 mm 3 mps 757 mmHg 53%
    21:00 +19°C° 0 mm 3 mps 757 mmHg 59%
    22:00 +19°C° 0 mm 2 mps 757 mmHg 61%
    23:00 +18°C° 0 mm 2 mps 757 mmHg 62%

    Day after tomorrow, 18 June, Tuesday

    Time Temperature Precipitation Wind Pressure Humidity
    00:00 +17°C° 0 mm 2 mps 757 mmHg 64%
    01:00 +18°C° 0 mm 1 mps 757 mmHg 68%
    02:00 +16°C° 0 mm 1 mps 757 mmHg 72%
    03:00 +14°C° 0 mm 0 mps 757 mmHg 76%
    04:00 +16°C° 0 mm 0 mps 757 mmHg 69%
    05:00 +18°C° 0 mm 0 mps 757 mmHg 62%
    06:00 +20°C° 0 mm 0 mps 758 mmHg 55%
    07:00 +23°C° 0 mm 1 mps 758 mmHg 51%
    08:00 +24°C° 0 mm 1 mps 758 mmHg 47%
    09:00 +26°C° 0 mm 2 mps 758 mmHg 44%
    10:00 +26°C° 0 mm 2 mps 757 mmHg 42%
    11:00 +27°C° 0 mm 2 mps 757 mmHg 41%
    12:00 +28°C° 0 mm 3 mps 757 mmHg 39%
    13:00 +28°C° 0 mm 3 mps 756 mmHg 39%
    14:00 +28°C° 0 mm 3 mps 756 mmHg 39%
    15:00 +28°C° 0 mm 3 mps 756 mmHg 39%
    16:00 +28°C° 0 mm 3 mps 755 mmHg 40%
    17:00 +28°C° 0 mm 3 mps 755 mmHg 42%
    18:00 +27°C° 0 mm 3 mps 755 mmHg 44%
    19:00 +25°C° 0 mm 3 mps 755 mmHg 50%
    20:00 +23°C° 0 mm 2 mps 756 mmHg 57%
    21:00 +21°C° 0 mm 1 mps 756 mmHg 63%
    22:00 +21°C° 0 mm 1 mps 756 mmHg 66%
    23:00 +20°C° 0 mm 1 mps 755 mmHg 68%

    19 June, Wednesday

    Time Temperature Precipitation Wind Pressure Humidity
    00:00 +18°C° 0 mm 0 mps 755 mmHg 70%
    01:00 +20°C° 0 mm 1 mps 755 mmHg 71%
    02:00 +20°C° 0 mm 1 mps 755 mmHg 71%
    03:00 +21°C° 0 mm 1 mps 755 mmHg 72%
    04:00 +21°C° 0 mm 1 mps 755 mmHg 71%
    05:00 +22°C° 0 mm 1 mps 755 mmHg 71%
    06:00 +21°C° 0 mm 2 mps 756 mmHg 71%
    07:00 +23°C° 0 mm 2 mps 756 mmHg 67%
    08:00 +24°C° 0 mm 2 mps 756 mmHg 63%
    09:00 +26°C° 0 mm 2 mps 756 mmHg 59%
    10:00 +27°C° 0 mm 3 mps 755 mmHg 54%
    11:00 +28°C° 0 mm 3 mps 755 mmHg 50%
    12:00 +29°C° 0 mm 4 mps 755 mmHg 46%
    13:00 +29°C° 0 mm 4 mps 755 mmHg 46%
    14:00 +29°C° 0 mm 4 mps 755 mmHg 45%
    15:00 +29°C° 0 mm 4 mps 755 mmHg 45%
    16:00 +28°C° 0 mm 4 mps 755 mmHg 47%
    17:00 +28°C° 0 mm 4 mps 755 mmHg 48%
    18:00 +28°C° 0 mm 4 mps 755 mmHg 50%
    19:00 +26°C° 0 mm 3 mps 755 mmHg 54%
    20:00 +25°C° 0 mm 3 mps 756 mmHg 58%
    21:00 +24°C° 0 mm 2 mps 756 mmHg 62%
    22:00 +22°C° 0 mm 3 mps 756 mmHg 65%
    23:00 +21°C° 0 mm 3 mps 756 mmHg 69%

    20 June, Thursday

    Time Temperature Precipitation Wind Pressure Humidity
    00:00 +20°C° 0 mm 3 mps 756 mmHg 73%
    01:00 +19°C° 0 mm 3 mps 757 mmHg 76%
    02:00 +19°C° 0 mm 3 mps 757 mmHg 79%
    03:00 +18°C° 0 mm 3 mps 757 mmHg 82%
    04:00 +19°C° 0 mm 3 mps 757 mmHg 80%
    05:00 +20°C° 0 mm 4 mps 757 mmHg 78%
    06:00 +20°C° 0 mm 4 mps 758 mmHg 75%
    07:00 +22°C° 0 mm 4 mps 758 mmHg 68%
    08:00 +25°C° 0 mm 4 mps 758 mmHg 61%
    09:00 +26°C° 0 mm 4 mps 758 mmHg 54%
    10:00 +27°C° 0 mm 4 mps 758 mmHg 49%
    11:00 +28°C° 0 mm 4 mps 758 mmHg 45%
    12:00 +29°C° 0 mm 4 mps 758 mmHg 40%
    13:00 +30°C° 0 mm 4 mps 758 mmHg 37%
    14:00 +30°C° 0 mm 4 mps 758 mmHg 35%
    15:00 +32°C° 0 mm 4 mps 757 mmHg 33%
    16:00 +30°C° 0 mm 4 mps 757 mmHg 35%
    17:00 +30°C° 0 mm 4 mps 758 mmHg 37%
    18:00 +29°C° 0 mm 3 mps 758 mmHg 39%
    19:00 +28°C° 0 mm 3 mps 758 mmHg 44%
    20:00 +26°C° 0 mm 3 mps 758 mmHg 49%
    21:00 +24°C° 0 mm 3 mps 759 mmHg 54%
    22:00 +22°C° 0 mm 3 mps 759 mmHg 56%
    23:00 +22°C° 0 mm 3 mps 759 mmHg 59%

    21 June, Friday

    Time Temperature Precipitation Wind Pressure Humidity
    00:00 +21°C° 0 mm 2 mps 759 mmHg 61%
    01:00 +20°C° 0 mm 2 mps 759 mmHg 63%
    02:00 +20°C° 0 mm 2 mps 759 mmHg 65%
    03:00 +19°C° 0 mm 2 mps 759 mmHg 66%
    04:00 +20°C° 0 mm 2 mps 759 mmHg 64%
    05:00 +21°C° 0 mm 2 mps 759 mmHg 62%
    06:00 +22°C° 0 mm 3 mps 759 mmHg 60%
    07:00 +25°C° 0 mm 3 mps 759 mmHg 55%
    08:00 +27°C° 0 mm 3 mps 759 mmHg 50%
    09:00 +28°C° 0 mm 2 mps 759 mmHg 45%
    10:00 +29°C° 0 mm 3 mps 759 mmHg 42%
    11:00 +30°C° 0 mm 3 mps 759 mmHg 39%
    12:00 +31°C° 0 mm 3 mps 759 mmHg 36%
    13:00 +32°C° 0 mm 4 mps 759 mmHg 35%
    14:00 +32°C° 0 mm 4 mps 759 mmHg 34%
    15:00 +32°C° 0 mm 4 mps 759 mmHg 33%
    16:00 +32°C° 0 mm 4 mps 759 mmHg 34%
    17:00 +30°C° 0 mm 4 mps 759 mmHg 36%
    18:00 +30°C° 0 mm 3 mps 758 mmHg 37%
    19:00 +28°C° 0 mm 3 mps 759 mmHg 41%
    20:00 +26°C° 0 mm 3 mps 759 mmHg 45%
    21:00 +24°C° 0 mm 3 mps 759 mmHg 49%
    22:00 +24°C° 0 mm 3 mps 759 mmHg 50%
    23:00 +23°C° 0 mm 2 mps 759 mmHg 52%
    Show more